Flag for Romania Weather past 2 weeks in Timișoara, Romania

Now
37 °F

Fog.


Feels Like: 34 °F
Forecast: 37 / 47 °F
Wind: 5 mph from Southeast

Location: Timisoara Airport

Current Time: Mar 2, 2015 at 5:58:27 AM

Latest Report: Mar 2, 2015 at 5:30 AM


Visibility: 0 mi

Pressure: 29.92 "Hg

Humidity: 100%

Dew point: 37 °F

Location of TimișoaraLocation

Historic Weather in Timișoara — Graph

°F

Timișoara temperature yesterday

Maximum temperature yesterday: 48 °F (at 3:30 PM)
Minimum temperature yesterday: 41 °F (at 2:30 AM)
Average temperature yesterday: 44 °F

Past Weeks' High & Low Weather Summary

 TemperatureHumidityPressure
High59 °F (Feb 24, 2:30 PM)100% (Feb 16, 11:00 PM)30.72 "Hg (Feb 16, 11:00 PM)
Low19 °F (Feb 18, 5:30 AM)17% (Feb 17, 3:30 PM)29.62 "Hg (Feb 24, 3:30 PM)
Average41 °F81%30.07 "Hg
* Reported Feb 15 4:00 AM — Mar 2 4:30 AM, Timișoara, Weather by CustomWeather, © 2015

Note: Actual official high and low records may vary slightly from our data, if they occured in-between our weather recording intervals... More about our weather records

Advertising

Timișoara weather history for previous 24 hours

 ConditionsComfort  
Time TempWeatherWind HumidityBarometerVisibility
4:30 AM
Mon, Mar 2
37 °FFog.6 mph100%29.92 "Hg1 mi
4:00 AM39 °FFog.3 mph93%29.92 "Hg1 mi
3:30 AM39 °FFog.2 mph100%29.92 "Hg1 mi
3:00 AM39 °FFog.2 mph100%29.92 "Hg1 mi
2:30 AM39 °FFog.3 mph100%29.95 "Hg1 mi
2:00 AM39 °FFog.3 mph93%29.95 "Hg1 mi
1:30 AM37 °FFog.2 mph100%29.95 "Hg1 mi
1:00 AM37 °FFog.3 mph93%29.95 "Hg0 mi
12:30 AM37 °FFog.1 mph93%29.95 "Hg1 mi
12:00 AM37 °FFog.2 mph100%29.95 "Hg1 mi
11:30 PM
Sun, Mar 1
41 °FSleet. Overcast.5 mph100%29.95 "Hg2 mi
11:00 PM41 °FFog.No wind100%29.95 "Hg2 mi
10:30 PM43 °FFog.1 mph93%29.95 "Hg1 mi
9:30 PM43 °FFog.3 mph100%29.95 "Hg1 mi
9:00 PM45 °FFog.8 mph100%29.95 "Hg1 mi
8:30 PM45 °FFog.5 mph93%29.95 "Hg1 mi
8:00 PM43 °FFog.2 mph100%29.95 "Hg1 mi
7:30 PM45 °FFog.5 mph93%29.95 "Hg2 mi
7:00 PM43 °FFog.6 mph100%29.92 "Hg2 mi
6:30 PM46 °FFog.1 mph100%29.92 "Hg2 mi
6:00 PM48 °FFog.2 mph94%29.95 "Hg2 mi
5:30 PM48 °FFog.2 mph94%29.95 "Hg3 mi
5:00 PM48 °FFog.3 mph94%29.95 "Hg3 mi
4:30 PM48 °FFog.3 mph94%29.95 "Hg3 mi
4:00 PM48 °FFog.3 mph94%29.95 "Hg3 mi
3:30 PM48 °FFog.5 mph94%29.95 "Hg3 mi
3:00 PM46 °FFog.3 mph100%29.98 "Hg2 mi
2:30 PM46 °FFog.3 mph100%29.98 "Hg2 mi
2:00 PM46 °FFog.2 mph100%30.01 "Hg2 mi
1:30 PM46 °FFog.3 mph100%30.01 "Hg2 mi
1:00 PM46 °FFog.3 mph93%30.01 "Hg2 mi
12:30 PM46 °FFog.5 mph93%30.04 "Hg2 mi
12:00 PM46 °FFog.3 mph93%30.04 "Hg2 mi
11:30 AM45 °FFog.3 mph100%30.04 "Hg1 mi
11:00 AM45 °FFog.5 mph100%30.04 "Hg1 mi
10:30 AM45 °FFog.2 mph100%30.04 "Hg1 mi
10:00 AM45 °FFog.2 mph93%30.04 "Hg1 mi
9:30 AM43 °FLight rain. Fog.1 mph100%30.04 "Hg1 mi
9:00 AM43 °FLight rain. Fog.1 mph100%30.04 "Hg1 mi
8:30 AM43 °FLight rain. Fog.1 mph100%30.04 "Hg1 mi
8:00 AM43 °FLight rain. Fog.1 mph100%30.04 "Hg1 mi
7:30 AM43 °FLight rain. Fog.2 mph100%30.04 "Hg1 mi
7:00 AM43 °FLight rain. Fog.No wind100%30.04 "Hg1 mi
6:30 AM43 °FRain. Fog.1 mph100%30.04 "Hg1 mi
6:00 AM43 °FRain. Fog.1 mph100%30.04 "Hg1 mi
5:30 AM43 °FFog.2 mph100%30.04 "Hg1 mi
5:00 AM43 °FFog.No wind100%30.04 "Hg1 mi
Weather by CustomWeather, © 2015

See weather overviewHow to use our weather pages